Find Starlink 33620

NORAD ID: 63069 Int'l Des: 2025-035 Owner: SPXS Country: US Constellation: starlink operational
LEOCIRCULAR

当前视图

正在加载3D地球...

About Starlink 33620

Starlink 33620 (NORAD 63069) is a starlink constellation satellite (v2 mini) launched Feb 21, 2025 by SPXS of US. It operates in LEO, CIRCULAR orbit with a mass of 575.00 kg.

即将过境

Passes for default location (London). Set your location on the main map for personalized predictions.

高度历史

Loading altitude history...

两行轨道根数

1 63069U 25035T 26263.30952347 .00010898 00000-0 40480-3 0 9996
2 63069 43.0026 128.0205 0001835 264.4658 95.5984 15.27594229 89486
Epoch: Sep 20, 2026 • Age: 20 hours

当前状态

高度 485.7 km
远地点 / 近地点 N/A
速度 7.62 km/s
星下点 -16.17°S, 49.32°E
发射日期 Feb 21, 2025
运行时间 1.5 years
类型 internet

技术详情

分类 Payload
质量 575.00 kg
干质量 530.00 kg
长度 0.30 m
跨度 29.00 m
形状 ? Box + pan
制造商 SPXS
平台类型 Starlink V2MO
阶段状态 In Orbit
所有者/国家 SPXS/US

Most Searched